Regional Weather Roundup
Issued by NWS

Home | Current Version | Previous Version | Text Only | Print | Product List | Glossary Off
Versions: 1 2 3 4 5 6 7 8 9 10 11 12 13 14 15 16 17 18 19 20 21 22 23 24 25 26 27 28 29 30 31 32 33 34 35 36 37 38 39 40 41 42 43 44 45 46 47 48 49 50

000
ASUS45 KCYS 261010
RWRWY

WYOMING REGIONAL WEATHER ROUNDUP
NATIONAL WEATHER SERVICE CHEYENNE WY
400 AM MDT TUE MAY 26 2015

NOTE:  "FAIR" INDICATES FEW OR NO CLOUDS BELOW 12,000 FEET
WITH NO SIGNIFICANT WEATHER AND/OR OBSTRUCTIONS TO VISIBILITY.

WYZ001-261100-
YELLOWSTONE NATIONAL PARK

CITY           SKY/WX    TMP DP  RH WIND       PRES   REMARKS
LK YELLOWSTONE   N/A     34  33  96 CALM      30.09S
W YELLOWSTONE  NOT AVBL

$$
WYZ002>013-054>058-071-098>099-261100-
NORTHERN WYOMING

CITY           SKY/WX    TMP DP  RH WIND       PRES   REMARKS
JACKSON        CLOUDY    43  43 100 CALM      30.04S
CODY           FAIR      45  39  81 CALM      29.94R
GREYBULL       FAIR      48  45  89 E5        29.93R
WORLAND        FAIR      45  43  93 W6        29.93R
SHERIDAN       FAIR      40  38  93 W3        29.93S
BUFFALO        FAIR      46  39  76 SW6       29.95F
GILLETTE       FAIR      42  41  96 CALM      29.95S
HULETT         PTSUNNY   43  43 100 S3        29.97S
NEWCASTLE      CLOUDY    50  50 100 SE7       29.98R

$$
WYZ014>020-022>026-101>103-261100-
CENTRAL WYOMING

CITY           SKY/WX    TMP DP  RH WIND       PRES   REMARKS
BIG PINEY      FAIR      37  33  85 N5        30.06S WCI  33
PINEDALE       FAIR      36  36 100 W3        30.08S
DUBOIS         FAIR      39  36  87 NW15      30.04S WCI  31
LANDER         FAIR      44  37  76 SW6       29.98S
RIVERTON       FAIR      43  41  93 NW8       29.99S
CASPER         FAIR      41  39  93 W6        29.98S
DOUGLAS        FAIR      41  40  96 CALM      29.98S

$$
WYZ021-027>030-104>119-261100-
SOUTHERN WYOMING

CITY           SKY/WX    TMP DP  RH WIND       PRES   REMARKS
EVANSTON       FAIR      41  37  86 SW7       30.06F
KEMMERER       FAIR      37  36  93 NW12      30.07S WCI  30
FORT BRIDGER   SUNNY     43  37  81 SW7       30.09S
ROCK SPRINGS   FAIR      40  37  89 W8        30.06S WCI  34
DIXON          CLOUDY    40  39  93 CALM      30.11R
RAWLINS        MOCLDY    42  39  89 W7        30.07R
SARATOGA       CLOUDY    41  37  87 MISG      30.08S
LARAMIE        CLOUDY    40  38  93 S3        30.06R
CHEYENNE       CLOUDY    44  38  79 NW6       30.02R
TORRINGTON     MOCLDY    46  45  96 CALM      29.97R FOG
PINE BLUFFS    FAIR      41  41 100 W3        30.00S

$$


USA.gov is the U.S. government's official web portal to all federal, state and local government web resources and services.